Flag for India Past Weather in New Okhla Industrial Development Authority, Uttar Pradesh, India — Yesterday and Last 2 Weeks

Now
90 °F

Scattered clouds.


Feels Like: 105 °F
Forecast: 82 / 94 °F
Wind: No wind

Location: New Delhi Palam Airport

Current Time: Jul 25, 2016 at 9:55:37 AM

Latest Report: Jul 25, 2016 at 9:30 AM


Visibility: 2 mi

Pressure: 29.65 "Hg

Humidity: 71%

Dew Point: 79 °F

Location of New Okhla Industrial Development AuthorityLocation

Past Weather in New Okhla Industrial Development Authority — Graph

°F

New Okhla Industrial Development Authority Temperature Yesterday

Maximum temperature yesterday: 93 °F (at 12:30 PM)
Minimum temperature yesterday: 84 °F (at 3:00 AM)
Average temperature yesterday: 86 °F

High & Low Weather Summary for the Past Weeks

 TemperatureHumidityPressure
High100 °F (Jul 10, 1:00 PM)100% (Jul 16, 6:30 AM)29.71 "Hg (Jul 16, 6:30 AM)
Low77 °F (Jul 16, 6:30 AM)47% (Jul 10, 1:00 PM)29.39 "Hg (Jul 10, 3:30 PM)
Average87 °F77%29.55 "Hg
* Reported Jul 10 8:30 AM — Jul 25 8:30 AM, New Okhla Industrial Development Authority, Weather by CustomWeather, © 2016

Note: Actual official high and low records may vary slightly from our data, if they occured in-between our weather recording intervals... More about our weather records

Advertising

New Okhla Industrial Development Authority Weather History for the Previous 24 Hours

Scroll right to see more
 ConditionsComfort  
Time TempWeatherWind HumidityBarometerVisibility
8:30 AM
Mon, Jul 25
88 °FScattered clouds.No wind75%29.65 "Hg1 mi
8:00 AM88 °FFog.No wind75%29.65 "Hg1 mi
7:30 AM86 °FFog.No wind79%29.65 "Hg1 mi
7:00 AM86 °FFog.No wind79%29.65 "Hg1 mi
6:30 AM84 °FFog.No wind89%29.62 "Hg1 mi
6:00 AM84 °FFog.No wind89%29.62 "Hg1 mi
5:30 AM84 °FFog.No wind89%29.62 "Hg1 mi
5:00 AM84 °FFog.No wind89%29.62 "Hg1 mi
4:30 AM84 °FFog.No wind89%29.62 "Hg1 mi
4:00 AM84 °FFog.No wind89%29.62 "Hg1 mi
3:30 AM84 °FFog.No wind89%29.62 "Hg1 mi
3:00 AM84 °FFog.No wind89%29.62 "Hg1 mi
2:30 AM84 °FFog.No wind89%29.62 "Hg1 mi
2:00 AM84 °FFog.No wind89%29.62 "Hg1 mi
1:30 AM84 °FFog.No wind89%29.62 "Hg1 mi
1:00 AM84 °FFog.No wind89%29.62 "Hg1 mi
12:30 AM84 °FFog.No wind89%29.62 "Hg1 mi
12:00 AM84 °FFog.No wind89%29.62 "Hg1 mi
11:30 PM
Sun, Jul 24
84 °FFog.No wind89%29.62 "Hg1 mi
11:00 PM84 °FFog.3 mph89%29.62 "Hg1 mi
10:30 PM84 °FFog.3 mph89%29.62 "Hg1 mi
10:00 PM84 °FFog.3 mph89%29.62 "Hg1 mi
9:30 PM84 °FFog.5 mph89%29.59 "Hg1 mi
9:00 PM84 °FFog.3 mph89%29.59 "Hg1 mi
8:30 PM86 °FFog.3 mph84%29.59 "Hg1 mi
8:00 PM86 °FFog.3 mph84%29.59 "Hg1 mi
7:30 PM86 °FFog.6 mph79%29.59 "Hg1 mi
7:00 PM86 °FFog.6 mph79%29.59 "Hg1 mi
6:30 PM84 °FFog.5 mph84%29.59 "Hg1 mi
6:00 PM84 °FFog.5 mph84%29.59 "Hg1 mi
5:30 PM84 °FFog.6 mph84%29.56 "Hg1 mi
5:00 PM84 °FFog.6 mph84%29.56 "Hg1 mi
4:30 PM86 °FFog.7 mph84%29.59 "Hg1 mi
4:00 PM86 °FFog.7 mph84%29.59 "Hg1 mi
3:30 PM86 °FFog.7 mph84%29.59 "Hg1 mi
3:00 PM86 °FFog.6 mph84%29.62 "Hg1 mi
2:30 PM86 °FFog.6 mph84%29.62 "Hg1 mi
2:00 PM86 °FThunderstorms. More clouds than sun.8 mph89%29.62 "Hg1 mi
1:30 PM93 °FScattered clouds.6 mph59%29.65 "Hg2 mi
1:00 PM93 °FScattered clouds.6 mph63%29.65 "Hg2 mi
12:30 PM93 °FScattered clouds.No wind63%29.68 "Hg2 mi
11:30 AM91 °FScattered clouds.No wind71%29.68 "Hg2 mi
11:00 AM90 °FScattered clouds.No wind75%29.68 "Hg1 mi
10:30 AM90 °FBroken clouds.No wind75%29.68 "Hg1 mi
10:00 AM88 °FFog.2 mph79%29.71 "Hg1 mi
9:30 AM86 °FFog.5 mph84%29.71 "Hg1 mi
9:00 AM86 °FFog.5 mph84%29.71 "Hg1 mi
Weather by CustomWeather, © 2016

See weather overviewHow to use our weather pages